Location: *
(50.9167°S, 179.4000°W)
Time: 18:03:50
(UTC+00:00)

CZ-2C R/B - Pass Details

Date: 23 June 2024
Orbit: 665 x 779 km, 98.4° (Epoch: 18 July)

Event Time Altitude Azimuth Distance (km) Brightness Sun altitude
Rises 04:42:42 0° 171° (S) 3,310 5.4 -6.7°
Reaches altitude 10° 04:45:13 10° 179° (S) 2,373 4.8 -7.1°
Maximum altitude 04:49:57 36° 243° (WSW) 1,242 4.0 -7.7°
Drops below altitude 10° 04:54:35 10° 308° (NW) 2,317 6.6 -8.4°
Sets 04:57:01 0° 316° (NW) 3,221 7.3 -8.7°
